Time,TemperatureF,DewpointF,PressureIn,WindDirection,WindDirectionDegrees,WindSpeedMPH,WindSpeedGustMPH,Humidity,HourlyPrecipIn,Conditions,Clouds,dailyrainin,SolarRadiationWatts/m^2,SoftwareType,DateUTC
2013-06-10 00:03:00,82.0,76.0,-100.00,SE,125,6.0,-999.0,83,0.00,,,-99.99,0.000000,,2013-06-10 04:03:00,
2013-06-10 00:13:00,82.0,76.0,-100.00,SE,125,6.0,-999.0,84,0.00,,,-99.99,0.000000,,2013-06-10 04:13:00,
2013-06-10 00:23:00,82.0,76.0,-100.00,SE,125,6.0,-999.0,84,0.00,,,-99.99,0.000000,,2013-06-10 04:23:00,
2013-06-10 00:33:00,82.0,76.0,-100.00,SE,124,6.0,-999.0,84,0.00,,,-99.99,0.000000,,2013-06-10 04:33:00,
2013-06-10 00:42:00,81.0,76.0,-100.00,ESE,121,6.0,-999.0,85,0.00,,,-99.99,0.000000,,2013-06-10 04:42:00,
2013-06-10 00:53:00,81.0,76.0,-100.00,ESE,121,6.0,-999.0,85,0.00,,,-99.99,0.000000,,2013-06-10 04:53:00,
2013-06-10 01:02:00,82.0,76.0,-100.00,ESE,123,7.0,-999.0,84,0.00,,,-99.99,0.000000,,2013-06-10 05:02:00,
2013-06-10 01:12:00,81.0,76.0,-100.00,ESE,121,6.0,-999.0,84,0.00,,,-99.99,0.000000,,2013-06-10 05:12:00,
2013-06-10 01:22:00,81.0,76.0,-100.00,ESE,121,6.0,-999.0,84,0.00,,,-99.99,0.000000,,2013-06-10 05:22:00,
2013-06-10 01:32:00,81.0,76.0,-100.00,ESE,123,5.0,-999.0,84,0.00,,,-99.99,0.000000,,2013-06-10 05:32:00,
2013-06-10 01:42:00,82.0,77.0,-100.00,ESE,122,6.0,-999.0,84,0.00,,,-99.99,0.000000,,2013-06-10 05:42:00,
2013-06-10 01:52:00,82.0,77.0,-100.00,ESE,122,6.0,-999.0,84,0.00,,,-99.99,0.000000,,2013-06-10 05:52:00,
2013-06-10 02:02:00,82.0,77.0,-100.00,ESE,123,6.0,-999.0,85,0.00,,,-99.99,0.000000,,2013-06-10 06:02:00,
2013-06-10 02:12:00,81.0,77.0,-100.00,ESE,115,7.0,-999.0,86,0.00,,,-99.99,0.000000,,2013-06-10 06:12:00,
2013-06-10 02:22:00,81.0,77.0,-100.00,ESE,115,7.0,-999.0,86,0.00,,,-99.99,0.000000,,2013-06-10 06:22:00,
2013-06-10 02:32:00,80.0,75.0,-100.00,ESE,113,8.0,-999.0,84,0.00,,,-99.99,0.000000,,2013-06-10 06:32:00,
2013-06-10 02:42:00,81.0,77.0,-100.00,ESE,109,7.0,-999.0,86,0.00,,,-99.99,0.000000,,2013-06-10 06:42:00,
2013-06-10 02:53:00,81.0,77.0,-100.00,ESE,109,7.0,-999.0,86,0.00,,,-99.99,0.000000,,2013-06-10 06:53:00,
2013-06-10 03:02:00,81.0,77.0,-100.00,ESE,108,7.0,-999.0,87,0.00,,,-99.99,0.000000,,2013-06-10 07:02:00,
2013-06-10 03:12:00,81.0,77.0,-100.00,ESE,109,7.0,-999.0,87,0.00,,,-99.99,0.000000,,2013-06-10 07:12:00,
2013-06-10 03:22:00,81.0,77.0,-100.00,ESE,109,7.0,-999.0,87,0.00,,,-99.99,0.000000,,2013-06-10 07:22:00,
2013-06-10 03:32:00,81.0,77.0,-100.00,ESE,107,6.0,-999.0,87,0.00,,,-99.99,0.000000,,2013-06-10 07:32:00,
2013-06-10 03:42:00,81.0,77.0,-100.00,ESE,104,7.0,-999.0,87,0.00,,,-99.99,0.000000,,2013-06-10 07:42:00,
2013-06-10 03:52:00,81.0,77.0,-100.00,ESE,104,7.0,-999.0,87,0.00,,,-99.99,0.000000,,2013-06-10 07:52:00,
2013-06-10 04:02:00,81.0,77.0,-100.00,ESE,103,7.0,-999.0,87,0.00,,,-99.99,0.000000,,2013-06-10 08:02:00,
2013-06-10 04:12:00,81.0,77.0,-100.00,ESE,104,7.0,-999.0,87,0.00,,,-99.99,0.000000,,2013-06-10 08:12:00,
2013-06-10 04:22:00,81.0,77.0,-100.00,ESE,104,7.0,-999.0,87,0.00,,,-99.99,0.000000,,2013-06-10 08:22:00,
2013-06-10 04:32:00,81.0,77.0,-100.00,ESE,109,7.0,-999.0,87,0.00,,,-99.99,0.000000,,2013-06-10 08:32:00,
2013-06-10 04:42:00,81.0,77.0,-100.00,ESE,113,7.0,-999.0,88,0.00,,,-99.99,0.000000,,2013-06-10 08:42:00,
2013-06-10 04:52:00,81.0,77.0,-100.00,ESE,113,7.0,-999.0,88,0.00,,,-99.99,0.000000,,2013-06-10 08:52:00,
2013-06-10 05:02:00,81.0,77.0,-100.00,ESE,108,8.0,-999.0,88,0.00,,,-99.99,0.000000,,2013-06-10 09:02:00,
2013-06-10 05:12:00,81.0,77.0,-100.00,ESE,111,7.0,-999.0,89,0.00,,,-99.99,0.000000,,2013-06-10 09:12:00,
2013-06-10 05:22:00,81.0,77.0,-100.00,ESE,111,7.0,-999.0,89,0.00,,,-99.99,0.000000,,2013-06-10 09:22:00,
2013-06-10 05:32:00,81.0,77.0,-100.00,ESE,118,7.0,-999.0,89,0.00,,,-99.99,0.000000,,2013-06-10 09:32:00,
2013-06-10 05:43:00,81.0,77.0,-100.00,ESE,122,6.0,-999.0,89,0.00,,,-99.99,0.000000,,2013-06-10 09:43:00,
2013-06-10 05:53:00,81.0,77.0,-100.00,ESE,122,6.0,-999.0,89,0.00,,,-99.99,0.000000,,2013-06-10 09:53:00,
2013-06-10 06:03:00,81.0,77.0,-100.00,ESE,117,7.0,-999.0,89,0.00,,,-99.99,0.000000,,2013-06-10 10:03:00,
2013-06-10 06:13:00,81.0,77.0,-100.00,ESE,120,6.0,-999.0,89,0.00,,,-99.99,0.000000,,2013-06-10 10:13:00,
2013-06-10 06:23:00,81.0,77.0,-100.00,ESE,120,6.0,-999.0,89,0.00,,,-99.99,0.000000,,2013-06-10 10:23:00,
2013-06-10 06:33:00,81.0,77.0,-100.00,ESE,115,6.0,-999.0,89,0.00,,,-99.99,0.000000,,2013-06-10 10:33:00,
2013-06-10 06:42:00,81.0,77.0,-100.00,ESE,112,8.0,-999.0,88,0.00,,,-99.99,0.800000,,2013-06-10 10:42:00,
2013-06-10 06:52:00,81.0,77.0,-100.00,ESE,112,8.0,-999.0,88,0.00,,,-99.99,0.800000,,2013-06-10 10:52:00,
2013-06-10 07:03:00,81.0,77.0,-100.00,ESE,119,6.0,-999.0,88,0.00,,,-99.99,5.900000,,2013-06-10 11:03:00,
2013-06-10 07:12:00,81.0,77.0,-100.00,SE,127,6.0,-999.0,86,0.00,,,-99.99,24.700001,,2013-06-10 11:12:00,
2013-06-10 07:22:00,81.0,77.0,-100.00,SE,127,6.0,-999.0,86,0.00,,,-99.99,24.700001,,2013-06-10 11:22:00,
2013-06-10 07:32:00,82.0,77.0,-100.00,ESE,119,5.0,-999.0,86,0.00,,,-99.99,65.599998,,2013-06-10 11:32:00,
2013-06-10 07:42:00,82.0,77.0,-100.00,SE,129,6.0,-999.0,85,0.00,,,-99.99,83.599998,,2013-06-10 11:42:00,
2013-06-10 07:52:00,82.0,77.0,-100.00,SE,129,6.0,-999.0,85,0.00,,,-99.99,83.599998,,2013-06-10 11:52:00,
2013-06-10 08:02:00,83.0,78.0,-100.00,SE,131,6.0,-999.0,84,0.00,,,-99.99,162.600006,,2013-06-10 12:02:00,
2013-06-10 08:12:00,84.0,78.0,-100.00,SE,126,7.0,-999.0,82,0.00,,,-99.99,263.700012,,2013-06-10 12:12:00,
2013-06-10 08:22:00,84.0,78.0,-100.00,SE,126,7.0,-999.0,82,0.00,,,-99.99,263.700012,,2013-06-10 12:22:00,
2013-06-10 08:32:00,84.0,78.0,-100.00,SE,138,9.0,-999.0,80,0.00,,,-99.99,269.500000,,2013-06-10 12:32:00,
2013-06-10 08:42:00,85.0,78.0,-100.00,SE,133,9.0,-999.0,79,0.00,,,-99.99,322.200012,,2013-06-10 12:42:00,
2013-06-10 08:52:00,85.0,78.0,-100.00,SE,133,9.0,-999.0,79,0.00,,,-99.99,322.200012,,2013-06-10 12:52:00,
2013-06-10 09:02:00,85.0,77.0,-100.00,SE,143,8.0,-999.0,77,0.00,,,-99.99,384.600006,,2013-06-10 13:02:00,
2013-06-10 09:12:00,85.0,77.0,-100.00,SSE,147,9.0,-999.0,78,0.00,,,-99.99,238.800003,,2013-06-10 13:12:00,
2013-06-10 09:22:00,85.0,77.0,-100.00,SSE,147,9.0,-999.0,78,0.00,,,-99.99,238.800003,,2013-06-10 13:22:00,
2013-06-10 09:32:00,84.0,77.0,-100.00,SE,136,9.0,-999.0,80,0.00,,,-99.99,249.699997,,2013-06-10 13:32:00,
2013-06-10 09:42:00,85.0,77.0,-100.00,SE,128,9.0,-999.0,78,0.00,,,-99.99,251.600006,,2013-06-10 13:42:00,
2013-06-10 09:52:00,85.0,77.0,-100.00,SE,128,9.0,-999.0,78,0.00,,,-99.99,251.600006,,2013-06-10 13:52:00,
2013-06-10 10:02:00,85.0,77.0,-100.00,SE,125,9.0,-999.0,77,0.00,,,-99.99,389.600006,,2013-06-10 14:02:00,
2013-06-10 10:12:00,86.0,76.0,-100.00,SE,136,9.0,-999.0,73,0.00,,,-99.99,447.299988,,2013-06-10 14:12:00,
2013-06-10 10:22:00,86.0,76.0,-100.00,SE,136,9.0,-999.0,73,0.00,,,-99.99,447.299988,,2013-06-10 14:22:00,
2013-06-10 10:32:00,85.0,76.0,-100.00,SE,133,10.0,-999.0,73,0.00,,,-99.99,371.899994,,2013-06-10 14:32:00,
2013-06-10 10:42:00,85.0,77.0,-100.00,SE,137,7.0,-999.0,75,0.00,,,-99.99,300.799988,,2013-06-10 14:42:00,
2013-06-10 10:52:00,85.0,77.0,-100.00,SE,137,7.0,-999.0,75,0.00,,,-99.99,300.799988,,2013-06-10 14:52:00,
2013-06-10 11:02:00,86.0,77.0,-100.00,ESE,118,8.0,-999.0,76,0.00,,,-99.99,385.100006,,2013-06-10 15:02:00,
2013-06-10 11:12:00,87.0,77.0,-100.00,ESE,116,7.0,-999.0,73,0.00,,,-99.99,761.000000,,2013-06-10 15:12:00,
2013-06-10 11:22:00,87.0,77.0,-100.00,ESE,116,7.0,-999.0,73,0.00,,,-99.99,761.000000,,2013-06-10 15:22:00,
2013-06-10 11:33:00,87.0,77.0,-100.00,ESE,114,9.0,-999.0,71,0.00,,,-99.99,708.000000,,2013-06-10 15:33:00,
2013-06-10 11:43:00,87.0,78.0,-100.00,ESE,108,9.0,-999.0,73,0.00,,,-99.99,817.000000,,2013-06-10 15:43:00,
2013-06-10 11:53:00,87.0,78.0,-100.00,ESE,108,9.0,-999.0,73,0.00,,,-99.99,817.000000,,2013-06-10 15:53:00,
2013-06-10 12:03:00,86.0,77.0,-100.00,ESE,113,8.0,-999.0,74,0.00,,,-99.99,332.500000,,2013-06-10 16:03:00,
2013-06-10 12:13:00,86.0,78.0,-100.00,ESE,118,9.0,-999.0,76,0.00,,,-99.99,468.000000,,2013-06-10 16:13:00,
2013-06-10 12:23:00,86.0,78.0,-100.00,ESE,118,9.0,-999.0,76,0.00,,,-99.99,468.000000,,2013-06-10 16:23:00,
2013-06-10 12:33:00,86.0,78.0,-100.00,ESE,112,9.0,-999.0,75,0.00,,,-99.99,557.900024,,2013-06-10 16:33:00,
2013-06-10 12:43:00,87.0,78.0,-100.00,ESE,116,10.0,-999.0,75,0.00,,,-99.99,820.000000,,2013-06-10 16:43:00,
2013-06-10 12:53:00,87.0,78.0,-100.00,ESE,116,10.0,-999.0,75,0.00,,,-99.99,820.000000,,2013-06-10 16:53:00,
2013-06-10 13:03:00,87.0,78.0,-100.00,ESE,108,10.0,-999.0,74,0.00,,,-99.99,890.000000,,2013-06-10 17:03:00,
2013-06-10 13:14:00,87.0,78.0,-100.00,ESE,112,10.0,-999.0,73,0.00,,,-99.99,753.000000,,2013-06-10 17:14:00,
2013-06-10 13:27:00,87.0,78.0,-100.00,ESE,112,10.0,-999.0,73,0.00,,,-99.99,753.000000,,2013-06-10 17:27:00,
2013-06-10 13:38:00,87.0,78.0,-100.00,ESE,114,11.0,-999.0,73,0.00,,,-99.99,824.000000,,2013-06-10 17:38:00,
2013-06-10 13:48:00,87.0,78.0,-100.00,ESE,104,11.0,-999.0,75,0.00,,,-99.99,671.799988,,2013-06-10 17:48:00,
2013-06-10 13:58:00,87.0,78.0,-100.00,ESE,104,11.0,-999.0,75,0.00,,,-99.99,671.799988,,2013-06-10 17:58:00,
2013-06-10 14:07:00,86.0,77.0,-100.00,ESE,105,11.0,-999.0,75,0.00,,,-99.99,364.299988,,2013-06-10 18:07:00,
2013-06-10 14:14:00,87.0,78.0,-100.00,ESE,120,9.0,-999.0,75,0.00,,,-99.99,391.700012,,2013-06-10 18:14:00,
2013-06-10 14:25:00,87.0,78.0,-100.00,ESE,120,9.0,-999.0,75,0.00,,,-99.99,391.700012,,2013-06-10 18:25:00,
2013-06-10 14:35:00,87.0,78.0,-100.00,ESE,109,10.0,-999.0,75,0.00,,,-99.99,660.700012,,2013-06-10 18:35:00,
2013-06-10 14:48:00,87.0,78.0,-100.00,ESE,110,10.0,-999.0,74,0.00,,,-99.99,814.000000,,2013-06-10 18:48:00,
2013-06-10 14:55:00,87.0,78.0,-100.00,ESE,110,10.0,-999.0,74,0.00,,,-99.99,814.000000,,2013-06-10 18:55:00,
2013-06-10 15:03:00,88.0,78.0,-100.00,ESE,111,9.0,-999.0,73,0.00,,,-99.99,835.000000,,2013-06-10 19:03:00,
2013-06-10 15:13:00,88.0,78.0,-100.00,ESE,113,9.0,-999.0,73,0.00,,,-99.99,999.000000,,2013-06-10 19:13:00,
2013-06-10 15:22:00,88.0,78.0,-100.00,ESE,113,9.0,-999.0,73,0.00,,,-99.99,999.000000,,2013-06-10 19:22:00,
2013-06-10 15:33:00,88.0,78.0,-100.00,ESE,106,10.0,-999.0,72,0.00,,,-99.99,738.000000,,2013-06-10 19:33:00,
2013-06-10 15:43:00,86.0,77.0,-100.00,ESE,116,10.0,-999.0,73,0.00,,,-99.99,309.500000,,2013-06-10 19:43:00,
2013-06-10 15:53:00,86.0,77.0,-100.00,ESE,116,10.0,-999.0,73,0.00,,,-99.99,309.500000,,2013-06-10 19:53:00,
2013-06-10 16:03:00,87.0,78.0,-100.00,ESE,110,9.0,-999.0,74,0.00,,,-99.99,700.000000,,2013-06-10 20:03:00,
2013-06-10 16:12:00,87.0,77.0,-100.00,ESE,109,9.0,-999.0,73,0.00,,,-99.99,561.299988,,2013-06-10 20:12:00,
2013-06-10 16:23:00,87.0,77.0,-100.00,ESE,109,9.0,-999.0,73,0.00,,,-99.99,561.299988,,2013-06-10 20:23:00,
2013-06-10 16:32:00,87.0,77.0,-100.00,ESE,108,9.0,-999.0,73,0.00,,,-99.99,642.000000,,2013-06-10 20:32:00,
2013-06-10 16:43:00,87.0,78.0,-100.00,ESE,113,9.0,-999.0,73,0.00,,,-99.99,748.000000,,2013-06-10 20:43:00,
2013-06-10 16:53:00,87.0,78.0,-100.00,ESE,113,9.0,-999.0,73,0.00,,,-99.99,748.000000,,2013-06-10 20:53:00,
2013-06-10 17:02:00,86.0,78.0,-100.00,East,97,11.0,-999.0,75,0.00,,,-99.99,327.600006,,2013-06-10 21:02:00,
2013-06-10 17:12:00,86.0,77.0,-100.00,East,96,11.0,-999.0,75,0.00,,,-99.99,402.899994,,2013-06-10 21:12:00,
2013-06-10 17:23:00,86.0,77.0,-100.00,East,96,11.0,-999.0,75,0.00,,,-99.99,402.899994,,2013-06-10 21:23:00,
2013-06-10 17:33:00,87.0,78.0,-100.00,ESE,108,9.0,-999.0,74,0.00,,,-99.99,599.299988,,2013-06-10 21:33:00,
2013-06-10 17:43:00,87.0,78.0,-100.00,ESE,112,10.0,-999.0,74,0.00,,,-99.99,448.200012,,2013-06-10 21:43:00,
2013-06-10 17:53:00,87.0,78.0,-100.00,ESE,112,10.0,-999.0,74,0.00,,,-99.99,448.200012,,2013-06-10 21:53:00,
2013-06-10 18:03:00,87.0,78.0,-100.00,ESE,102,9.0,-999.0,74,0.00,,,-99.99,342.500000,,2013-06-10 22:03:00,
2013-06-10 18:13:00,86.0,78.0,-100.00,ESE,112,9.0,-999.0,75,0.00,,,-99.99,405.200012,,2013-06-10 22:13:00,
2013-06-10 18:22:00,86.0,78.0,-100.00,ESE,112,9.0,-999.0,75,0.00,,,-99.99,405.200012,,2013-06-10 22:22:00,
2013-06-10 18:33:00,86.0,77.0,-100.00,ESE,110,8.0,-999.0,75,0.00,,,-99.99,315.000000,,2013-06-10 22:33:00,
2013-06-10 18:42:00,86.0,78.0,-100.00,ESE,102,8.0,-999.0,75,0.00,,,-99.99,300.399994,,2013-06-10 22:42:00,
2013-06-10 18:52:00,86.0,78.0,-100.00,ESE,102,8.0,-999.0,75,0.00,,,-99.99,300.399994,,2013-06-10 22:52:00,
2013-06-10 19:02:00,86.0,77.0,-100.00,ESE,107,9.0,-999.0,76,0.00,,,-99.99,281.799988,,2013-06-10 23:02:00,
2013-06-10 19:12:00,85.0,77.0,-100.00,ESE,109,9.0,-999.0,77,0.00,,,-99.99,162.800003,,2013-06-10 23:12:00,
2013-06-10 19:22:00,85.0,77.0,-100.00,ESE,109,9.0,-999.0,77,0.00,,,-99.99,162.800003,,2013-06-10 23:22:00,
2013-06-10 19:32:00,85.0,77.0,-100.00,ESE,108,8.0,-999.0,79,0.00,,,-99.99,50.299999,,2013-06-10 23:32:00,
2013-06-10 19:42:00,84.0,77.0,-100.00,East,96,9.0,-999.0,80,0.00,,,-99.99,23.100000,,2013-06-10 23:42:00,
2013-06-10 19:52:00,84.0,77.0,-100.00,East,96,9.0,-999.0,80,0.00,,,-99.99,23.100000,,2013-06-10 23:52:00,
2013-06-10 20:02:00,83.0,77.0,-100.00,East,90,9.0,-999.0,81,0.00,,,-99.99,19.100000,,2013-06-11 00:02:00,
2013-06-10 20:12:00,83.0,77.0,-100.00,East,92,9.0,-999.0,82,0.00,,,-99.99,11.800000,,2013-06-11 00:12:00,
2013-06-10 20:22:00,83.0,77.0,-100.00,East,92,9.0,-999.0,82,0.00,,,-99.99,11.800000,,2013-06-11 00:22:00,
2013-06-10 20:32:00,83.0,77.0,-100.00,East,96,8.0,-999.0,83,0.00,,,-99.99,2.400000,,2013-06-11 00:32:00,
2013-06-10 20:42:00,83.0,77.0,-100.00,ESE,105,8.0,-999.0,83,0.00,,,-99.99,0.000000,,2013-06-11 00:42:00,
2013-06-10 20:52:00,83.0,77.0,-100.00,ESE,105,8.0,-999.0,83,0.00,,,-99.99,0.000000,,2013-06-11 00:52:00,
2013-06-10 21:02:00,83.0,77.0,-100.00,East,99,8.0,-999.0,84,0.00,,,-99.99,0.000000,,2013-06-11 01:02:00,
2013-06-10 21:12:00,82.0,77.0,-100.00,ESE,103,6.0,-999.0,84,0.00,,,-99.99,0.000000,,2013-06-11 01:12:00,
2013-06-10 21:22:00,82.0,77.0,-100.00,ESE,103,6.0,-999.0,84,0.00,,,-99.99,0.000000,,2013-06-11 01:22:00,
2013-06-10 21:32:00,82.0,78.0,-100.00,ESE,111,5.0,-999.0,85,0.00,,,-99.99,0.000000,,2013-06-11 01:32:00,
2013-06-10 21:42:00,83.0,78.0,-100.00,ESE,104,8.0,-999.0,85,0.00,,,-99.99,0.000000,,2013-06-11 01:42:00,
2013-06-10 21:53:00,83.0,78.0,-100.00,ESE,104,8.0,-999.0,85,0.00,,,-99.99,0.000000,,2013-06-11 01:53:00,
2013-06-10 22:02:00,83.0,78.0,-100.00,ESE,119,6.0,-999.0,85,0.00,,,-99.99,0.000000,,2013-06-11 02:02:00,
2013-06-10 22:12:00,83.0,78.0,-100.00,ESE,112,5.0,-999.0,85,0.00,,,-99.99,0.000000,,2013-06-11 02:12:00,
2013-06-10 22:22:00,83.0,78.0,-100.00,ESE,112,5.0,-999.0,85,0.00,,,-99.99,0.000000,,2013-06-11 02:22:00,
2013-06-10 22:32:00,83.0,78.0,-100.00,ESE,104,6.0,-999.0,86,0.00,,,-99.99,0.000000,,2013-06-11 02:32:00,
2013-06-10 22:42:00,82.0,77.0,-100.00,ESE,106,6.0,-999.0,85,0.00,,,-99.99,0.000000,,2013-06-11 02:42:00,
2013-06-10 22:52:00,82.0,77.0,-100.00,ESE,106,6.0,-999.0,85,0.00,,,-99.99,0.000000,,2013-06-11 02:52:00,
2013-06-10 23:02:00,83.0,78.0,-100.00,ESE,109,5.0,-999.0,86,0.00,,,-99.99,0.000000,,2013-06-11 03:02:00,
2013-06-10 23:13:00,83.0,78.0,-100.00,ESE,114,6.0,-999.0,86,0.00,,,-99.99,0.000000,,2013-06-11 03:13:00,
2013-06-10 23:22:00,83.0,78.0,-100.00,ESE,114,6.0,-999.0,86,0.00,,,-99.99,0.000000,,2013-06-11 03:22:00,
2013-06-10 23:32:00,82.0,78.0,-100.00,ESE,120,5.0,-999.0,86,0.00,,,-99.99,0.000000,,2013-06-11 03:32:00,
2013-06-10 23:43:00,82.0,78.0,-100.00,ESE,118,6.0,-999.0,86,0.00,,,-99.99,0.000000,,2013-06-11 03:43:00,
2013-06-10 23:53:00,82.0,78.0,-100.00,ESE,118,6.0,-999.0,86,0.00,,,-99.99,0.000000,,2013-06-11 03:53:00,